This is the latest recevied weather packets stored in our database for station/object S57PNX-10. If no packets are shown the sender has not sent any weather packets the latest 10 day(s).
| Time | Temp. | Humidity | Pressure | Rain* | Wind** | Luminosity | Snow |
|---|---|---|---|---|---|---|---|
| 1777548245 | 25.56° C | 16% | 1022.8 hPa | - | - | - | - |
| 1777547345 | 25° C | 17% | 1023 hPa | - | - | - | - |
| 1777546445 | 25° C | 17% | 1023.1 hPa | - | - | - | - |
| 1777545545 | 25° C | 16% | 1023.1 hPa | - | - | - | - |
| 1777544645 | 25° C | 18% | 1023.2 hPa | - | - | - | - |
| 1777543745 | 25° C | 16% | 1023.2 hPa | - | - | - | - |
| 1777542844 | 25° C | 17% | 1023.2 hPa | - | - | - | - |
| 1777541944 | 25° C | 17% | 1023.3 hPa | - | - | - | - |
| 1777541044 | 25° C | 17% | 1023.3 hPa | - | - | - | - |
| 1777540144 | 25° C | 18% | 1023.3 hPa | - | - | - | - |
| 1777539244 | 25° C | 18% | 1023.4 hPa | - | - | - | - |
| 1777538344 | 25.56° C | 18% | 1023.2 hPa | - | - | - | - |
| 1777537444 | 25.56° C | 20% | 1023.2 hPa | - | - | - | - |
| 1777536544 | 25.56° C | 25% | 1023.3 hPa | - | - | - | - |
| 1777535644 | 25.56° C | 25% | 1023 hPa | - | - | - | - |
| 1777534744 | 25.56° C | 25% | 1023.2 hPa | - | - | - | - |
| 1777533843 | 26.11° C | 24% | 1023.2 hPa | - | - | - | - |
| 1777532943 | 26.11° C | 24% | 1023.1 hPa | - | - | - | - |
| 1777532043 | 25.56° C | 25% | 1022.9 hPa | - | - | - | - |
| 1777531143 | 25.56° C | 25% | 1022.9 hPa | - | - | - | - |
| 1777530243 | 25.56° C | 25% | 1022.9 hPa | - | - | - | - |
| 1777529343 | 25° C | 24% | 1022.6 hPa | - | - | - | - |
| 1777528443 | 25.56° C | 23% | 1022.6 hPa | - | - | - | - |
| 1777527543 | 25.56° C | 26% | 1022.1 hPa | - | - | - | - |
| 1777526643 | 25.56° C | 27% | 1022.2 hPa | - | - | - | - |
* Rain since midnight (hover to see other rain measurements)
** Current wind speed in m/s (hover to see current wind gust speed)